AO-07 1 07530U 74089B 23269.86385514 -.00000016 00000-0 18735-3 0 9990 2 07530 101.9584 257.2613 0011881 228.7447 247.0153 12.53667331235913 AO-27 1 22825U 93061C 23269.71072877 .00000239 00000-0 10975-3 0 9998 2 22825 98.8313 314.1903 0009325 127.7240 232.4788 14.30349965564807 FO-29 1 24278U 96046B 23270.45075472 .00000017 00000-0 51450-4 0 9993 2 24278 98.5420 235.1263 0350693 151.5246 210.5557 13.53154862339014 ISS 1 25544U 98067A 23270.50956019 .00029201 00000-0 52140-3 0 9998 2 25544 51.6422 181.7088 0005704 66.4812 283.4577 15.49787503417656 SO-50 1 27607U 02058C 23269.96637633 .00002612 00000-0 37339-3 0 9991 2 27607 64.5559 312.8247 0057977 203.1250 156.7244 14.77666947117479 AO-73 1 39444U 13066AE 23269.86038168 .00009955 00000-0 10707-2 0 9997 2 39444 97.6823 230.7172 0050190 298.5272 61.0897 14.87774991531347 XW-2C 1 40906U 15049H 23270.33226161 .00019314 00000-0 68077-3 0 9995 2 40906 97.4946 278.0082 0012071 151.5040 208.6862 15.29252749443991 XW-2D 1 40907U 15049J 23270.33251777 .00024834 00000-0 80702-3 0 9999 2 40907 97.4920 278.8609 0011403 143.0463 217.1566 15.31842126444107 LILACSAT-2 1 40908U 15049K 23270.30377073 .00010173 00000-0 45963-3 0 9996 2 40908 97.5283 273.1819 0013271 185.7082 174.4004 15.21074174443310 XW-2E 1 40909U 15049L 23270.33608590 .00062426 00000-0 12667-2 0 9993 2 40909 97.4487 286.4062 0009915 109.2490 250.9832 15.46098549444888 XW-2F 1 40910U 15049M 23270.31542524 .00060574 00000-0 12624-2 0 9992 2 40910 97.4581 285.6434 0010729 111.7819 248.4572 15.45314221444618 XW-2B 1 40911U 15049N 23270.27974515 .00023896 00000-0 78354-3 0 9996 2 40911 97.4898 279.1764 0011311 144.7941 215.4049 15.31562272443971 IO-86 1 40931U 15052B 23270.16819884 .00001587 00000-0 12922-3 0 9999 2 40931 6.0000 78.4673 0013549 298.5925 61.2840 14.77374343432454 CAS-2T 1 41847U 16066G 23269.76403427 .00002219 00000-0 33878-3 0 9994 2 41847 98.4951 337.8104 0357374 252.5173 103.6664 14.40038435361426 EO-88 1 42017U 17008BX 23199.44167461 .08967960 24048-5 93873-3 0 9998 2 42017 97.1901 272.9585 0015059 261.6732 98.2859 16.37376287358454 CAS-4B 1 42759U 17034B 23270.35329861 .00015242 00000-0 71589-3 0 9990 2 42759 43.0144 266.9481 0010052 38.7295 321.4272 15.19383553347168 CAS-4A 1 42761U 17034D 23270.36891179 .00015799 00000-0 74109-3 0 9998 2 42761 43.0129 265.3770 0010825 40.8929 319.2730 15.19398856347171 AO-91 1 43017U 17073E 23269.67187672 .00011578 00000-0 78238-3 0 9992 2 43017 97.6136 150.0219 0230269 93.7016 269.0563 14.87548123316267 AO-92 1 43137U 18004AC 23270.18481482 .00084119 00000-0 12121-2 0 9993 2 43137 97.3190 351.0608 0004507 128.8676 231.2982 15.55723622318104 PICSAT 1 43132U 18004X 23270.20861943 .01613381 18357-2 20270-2 0 9995 2 43132 97.3005 358.5058 0008614 272.0825 87.9471 16.07998759318579 PO-101 1 43678U 18084H 23270.48712745 .00003411 00000-0 32689-3 0 9991 2 43678 98.0376 56.6323 0009566 175.6147 184.5157 14.93817325267532 QO-100 1 43700U 18090A 23270.06241948 .00000130 00000-0 00000+0 0 9993 2 43700 0.0197 160.0372 0001285 31.9485 221.8829 1.00272419 17958 JO-97 1 43803U 18099AX 23270.41260056 .00008577 00000-0 65500-3 0 9999 2 43803 97.5617 330.4401 0013304 116.0249 244.2348 15.02140828263036 FO-99 1 43937U 19003F 23270.37424980 .00213346 00000-0 15965-2 0 9997 2 43937 97.0730 297.4007 0006159 228.2439 131.8299 15.72016997261980 TO-108 1 44881U 19093C 23270.40570269 .00001840 00000-0 23363-3 0 9997 2 44881 97.8553 347.0991 0016087 103.8123 256.4882 14.82793495203942 RS-44 1 44909U 19096E 23269.54562949 .00000041 00000-0 12536-3 0 9992 2 44909 82.5165 280.5946 0216555 310.2010 48.0311 12.79722878175171 AO-109 1 47311U 21002C 23269.85931160 .00061110 00000-0 12558-2 0 9998 2 47311 60.6799 25.9584 0015253 356.1754 3.9225 15.45455301149968 UVSQ-SAT 1 47438U 21006AB 23270.38871802 .00026372 00000-0 96551-3 0 9995 2 47438 97.3735 326.2017 0010415 84.6980 275.5448 15.27958330148235 CSS 1 48274U 21035A 23270.35411627 .00025192 00000-0 27114-3 0 9996 2 48274 41.4726 254.2079 0008223 128.1513 232.0069 15.63091576137800 HO-113 1 50466U 21131B 23270.38338573 .00001066 00000-0 35908-3 0 9994 2 50466 98.5470 351.5960 0004259 179.6289 180.4903 14.39071418 92056 Tevel-1 1 51013U 22002AF 23270.40328008 .00036755 00000-0 12726-2 0 9991 2 51013 97.4229 336.8565 0006291 222.7371 137.3381 15.29749985 94360 Tevel-7 1 51062U 22002CG 23270.41290220 .00036665 00000-0 12691-2 0 9991 2 51062 97.4249 336.9827 0006369 221.9588 138.1165 15.29759908 94360 Tevel-4 1 51063U 22002CH 23270.42324928 .00035568 00000-0 12343-2 0 9991 2 51063 97.4245 336.9641 0006360 221.5372 138.5386 15.29683218 94368 Tevel-2 1 51069U 22002CP 23270.39138565 .00036229 00000-0 12520-2 0 9995 2 51069 97.4235 336.8890 0006286 222.5618 137.5136 15.29815320 94362 HADES 1 51080U 22002DA 23269.66814270 .00051376 00000-0 15337-2 0 9999 2 51080 97.4519 340.9738 0008394 253.9149 106.1170 15.34416157 94424 EASAT-2 1 51081U 22002DB 23269.44609644 .00043235 00000-0 12820-2 0 9992 2 51081 97.4506 340.7437 0008637 254.0866 105.9426 15.34670381 94391 Tevel-3 1 50988U 22002E 23270.38998919 .00035850 00000-0 12393-2 0 9997 2 50988 97.4239 336.9189 0006316 222.7788 137.2961 15.29806929 94369 Tevel-8 1 50989U 22002F 23270.41348842 .00036563 00000-0 12667-2 0 9992 2 50989 97.4253 337.0125 0006383 222.3965 137.6783 15.29731042 94364 Tevel-5 1 50998U 22002Q 23270.40394036 .00038708 00000-0 12945-2 0 9999 2 50998 97.4231 337.4518 0007484 217.9490 142.1224 15.30857617 94401 Tevel-6 1 50999U 22002R 23270.40257728 .00038659 00000-0 12931-2 0 9996 2 50999 97.4230 337.4426 0007512 217.6634 142.4081 15.30852040 94407 FO-118 1 54684U 22167C 23270.36806665 .00019268 00000-0 98216-3 0 9994 2 54684 97.5752 47.5088 0012415 346.2658 13.8235 15.16739954 44159 INSPIRE-SAT 7 1 56211U 23054AK 23269.95575257 .00037332 00000-0 13260-2 0 9998 2 56211 97.3928 164.1616 0014192 23.6802 336.5088 15.28834514 25717 YUZGU 8 1 53306U 98067TR 23025.79167360 .07011754 12129-4 11372-2 0 9998 2 53306 51.6063 292.9414 0006142 218.6650 243.8329 16.32721285 29461 YUZGU 12 1 53308U 98067TT 23029.07738038 .12328418 12448-4 55907-3 0 9992 2 53308 51.6129 276.0899 0007051 254.5007 105.5243 16.42903695 30044 YUZGU 5 1 53309U 98067TU 23026.78154543 .07817383 12266-4 25237-2 0 9999 2 53309 51.5369 287.2498 0215129 186.3126 284.9191 16.41937082 29633 YUZGU 9 1 53310U 98067TV 23027.95360578 .07311626 12146-4 11649-2 0 9996 2 53310 51.6161 282.1016 0006762 235.3476 124.6910 16.32881878 29843 TSIOLKOVSKY-RYAZAN 1 1 53311U 98067TW 23023.95662205 .10980964 12291-4 94749-3 0 9990 2 53311 51.6134 301.8850 0005230 218.9303 141.1347 16.38525487 29243 YUZGU 6 1 53312U 98067TX 23027.23010772 .07984851 12172-4 10935-2 0 9999 2 53312 51.6130 285.5123 0006786 228.9660 131.0778 16.34340713 29693 YUZGU 7 1 53313U 98067TY 23026.97308621 .06899054 12108-4 12066-2 0 9998 2 53313 51.6139 286.8007 0007093 224.6880 135.3572 16.31947587 29707 NO-44 1 26931U 01043C 23269.47729320 .00000353 00000-0 16558-3 0 9994 2 26931 67.0502 295.2742 0007282 258.5284 101.5000 14.30989689148071 NO-103 1 44355U 19036S 22110.24609159 .09797144 -77191-5 93620-3 0 9997 2 44355 28.5075 82.7172 0016307 255.7935 104.0877 16.36779689157079 LEDSAT 1 49069U 21073D 23270.42485589 .00015446 00000-0 79760-3 0 9992 2 49069 97.4736 339.6495 0024246 124.9669 235.3845 15.16136992116382 IO-117 1 53106U 22080B 23269.37565288 -.00000003 00000-0 00000-0 0 9997 2 53106 70.1406 284.5561 0008473 167.7073 192.3795 6.42557266 28255 EOS-7 1 55562U 23019A 23270.26620796 .00039021 00000-0 79505-3 0 9994 2 55562 37.1818 108.4810 0006455 212.9446 147.0912 15.45289072 35413 URESAT-1 1 99999U 21006CV 23172.31124317 .00000000 00000-0 12001-3 0 01 2 99999 97.5130 288.7904 0014196 182.4544 25.2166 15.13217361 01